sat.trackr.live / text

‹ back to catalog

STARLINK-5809

NORAD 55775 · 2023-028AL

PAYLOAD ACTIVE UNKNOWN

§ Identity

Operator
Country
US
Launch date
2023-03-03
Launch site
AFWTR
Launch vehicle
Mass (kg)
RCS (m²)

Purposes: comms

External: N2YO · Heavens-Above · Gunter

§ Orbital elements

Epoch: 2026-05-25T02:55:42.407040Z

Period
96.11 min
Inclination
70.0006°
Eccentricity
0.0002659
Mean motion
14.98337833 rev/d
Perigee alt
570.2 km
Apogee alt
573.9 km
Semi-major
6,950.2 km
B*
-5.0855e-5
RAAN
31.6776°
Arg perigee
259.1039°
Mean anomaly
100.9821°
Rev number
17,798

§ Raw data

STARLINK-58091 55775U 23028AL  26145.12201860 -.00000700  00000+0 -50855-4 0  99972 55775  70.0006  31.6776 0002659 259.1039 100.9821 14.98337833177987

JSON: /api/v1/satellites/55775 · /tle

For live sub-satellite position, see the globe view (requires WebGL).

§ Visibility from observer

Set your observer location to see the next 7 days of passes ≥ 10°. The values pass through the URL so the page stays shareable.

No JS? Fill the form by hand. The geolocation button needs JavaScript.